When you browse on this site, cookies collect data to enhance your experience and personalize the content and advertising you see.
Visit our Privacy Policy to learn more. By continuing to use the site, you agree to this use of cookies and data.
  • In United Kingdom
  • List of Countries
  • For 7 days
  • Water Temperature
  • Satellite Maps
  • Weather Map
  • Weather Widgets
  • user-avatar
    Login

    Hourly Weather Kankan

    Today, 22 February, Friday

    Time Temperature Precipitation Wind Pressure Humidity
    00:00 +25°C° 0 mm 1 mps 686 mmHg 11%
    01:00 +22°C° 0 mm 0 mps 686 mmHg 11%
    02:00 +21°C° 0 mm 0 mps 685 mmHg 11%
    03:00 +21°C° 0 mm 0 mps 685 mmHg 11%
    04:00 +21°C° 0 mm 0 mps 685 mmHg 12%
    05:00 +21°C° 0 mm 0 mps 685 mmHg 12%
    06:00 +23°C° 0 mm 1 mps 685 mmHg 12%
    07:00 +22°C° 0 mm 1 mps 685 mmHg 12%
    08:00 +26°C° 0 mm 1 mps 686 mmHg 11%
    09:00 +30°C° 0 mm 1 mps 687 mmHg 10%
    10:00 +33°C° 0 mm 1 mps 688 mmHg 8%
    11:00 +36°C° 0 mm 2 mps 687 mmHg 8%
    12:00 +37°C° 0 mm 2 mps 687 mmHg 8%
    13:00 +39°C° 0 mm 2 mps 687 mmHg 8%
    14:00 +39°C° 0 mm 2 mps 686 mmHg 8%
    15:00 +39°C° 0 mm 2 mps 685 mmHg 8%
    16:00 +39°C° 0 mm 2 mps 685 mmHg 8%
    17:00 +36°C° 0 mm 1 mps 684 mmHg 10%
    18:00 +33°C° 0 mm 1 mps 684 mmHg 11%
    19:00 +31°C° 0 mm 1 mps 684 mmHg 12%
    20:00 +30°C° 0 mm 1 mps 684 mmHg 13%
    21:00 +29°C° 0 mm 1 mps 684 mmHg 14%
    22:00 +28°C° 0 mm 1 mps 684 mmHg 15%
    23:00 +27°C° 0 mm 1 mps 684 mmHg 16%

    Tomorrow, 23 February, Saturday

    Time Temperature Precipitation Wind Pressure Humidity
    00:00 +27°C° 0 mm 1 mps 684 mmHg 18%
    01:00 +26°C° 0 mm 1 mps 684 mmHg 20%
    02:00 +26°C° 0 mm 1 mps 684 mmHg 25%
    03:00 +26°C° 0 mm 1 mps 683 mmHg 30%
    04:00 +25°C° 0 mm 1 mps 683 mmHg 35%
    05:00 +25°C° 0 mm 1 mps 683 mmHg 42%
    06:00 +25°C° 0 mm 1 mps 683 mmHg 49%
    07:00 +24°C° 0 mm 2 mps 684 mmHg 55%
    08:00 +27°C° 0 mm 2 mps 685 mmHg 49%
    09:00 +30°C° 0 mm 3 mps 685 mmHg 43%
    10:00 +34°C° 0 mm 3 mps 686 mmHg 37%
    11:00 +35°C° 0 mm 3 mps 686 mmHg 32%
    12:00 +37°C° 0 mm 3 mps 686 mmHg 27%
    13:00 +38°C° 0 mm 3 mps 685 mmHg 22%
    14:00 +37°C° 0 mm 3 mps 684 mmHg 23%
    15:00 +37°C° 0 mm 3 mps 683 mmHg 25%
    16:00 +36°C° 0 mm 3 mps 682 mmHg 26%
    17:00 +35°C° 0.1 mm 3 mps 683 mmHg 29%
    18:00 +34°C° 0.1 mm 2 mps 683 mmHg 32%
    19:00 +32°C° 0.1 mm 2 mps 683 mmHg 35%
    20:00 +31°C° 0 mm 2 mps 683 mmHg 39%
    21:00 +30°C° 0 mm 2 mps 683 mmHg 44%
    22:00 +29°C° 0 mm 2 mps 684 mmHg 48%
    23:00 +28°C° 0 mm 2 mps 684 mmHg 52%

    Day after tomorrow, 24 February, Sunday

    Time Temperature Precipitation Wind Pressure Humidity
    00:00 +27°C° 0 mm 2 mps 684 mmHg 56%
    01:00 +27°C° 0 mm 2 mps 684 mmHg 60%
    02:00 +26°C° 0.2 mm 2 mps 683 mmHg 63%
    03:00 +26°C° 0.2 mm 2 mps 683 mmHg 66%
    04:00 +25°C° 0.2 mm 2 mps 683 mmHg 69%
    05:00 +24°C° 0.1 mm 2 mps 683 mmHg 71%
    06:00 +24°C° 0.1 mm 1 mps 683 mmHg 74%
    07:00 +23°C° 0.1 mm 1 mps 683 mmHg 77%
    08:00 +26°C° 0 mm 1 mps 684 mmHg 64%
    09:00 +28°C° 0 mm 2 mps 686 mmHg 52%
    10:00 +31°C° 0 mm 2 mps 687 mmHg 40%
    11:00 +34°C° 0 mm 2 mps 686 mmHg 35%
    12:00 +35°C° 0 mm 2 mps 686 mmHg 31%
    13:00 +37°C° 0 mm 2 mps 685 mmHg 26%
    14:00 +36°C° 0 mm 2 mps 684 mmHg 26%
    15:00 +36°C° 0 mm 2 mps 683 mmHg 27%
    16:00 +34°C° 0 mm 1 mps 682 mmHg 28%
    17:00 +33°C° 0 mm 1 mps 683 mmHg 28%
    18:00 +32°C° 0 mm 1 mps 683 mmHg 29%
    19:00 +31°C° 0 mm 1 mps 683 mmHg 30%
    20:00 +31°C° 0 mm 1 mps 684 mmHg 26%
    21:00 +30°C° 0 mm 1 mps 684 mmHg 21%
    22:00 +30°C° 0 mm 2 mps 685 mmHg 17%
    23:00 +29°C° 0 mm 1 mps 684 mmHg 15%

    25 February, Monday

    Time Temperature Precipitation Wind Pressure Humidity
    00:00 +27°C° 0 mm 1 mps 684 mmHg 12%
    01:00 +26°C° 0 mm 1 mps 684 mmHg 10%
    02:00 +25°C° 0 mm 1 mps 683 mmHg 11%
    03:00 +24°C° 0 mm 1 mps 683 mmHg 11%
    04:00 +23°C° 0 mm 1 mps 682 mmHg 12%
    05:00 +23°C° 0 mm 1 mps 683 mmHg 13%
    06:00 +22°C° 0 mm 1 mps 683 mmHg 14%
    07:00 +22°C° 0 mm 1 mps 684 mmHg 16%
    08:00 +23°C° 0 mm 1 mps 685 mmHg 14%
    09:00 +25°C° 0 mm 2 mps 685 mmHg 13%
    10:00 +26°C° 0 mm 2 mps 686 mmHg 11%
    11:00 +27°C° 0 mm 2 mps 686 mmHg 11%
    12:00 +28°C° 0 mm 2 mps 685 mmHg 11%
    13:00 +30°C° 0 mm 2 mps 685 mmHg 11%
    14:00 +30°C° 0.1 mm 2 mps 684 mmHg 11%
    15:00 +30°C° 0.1 mm 2 mps 683 mmHg 12%
    16:00 +30°C° 0.1 mm 2 mps 683 mmHg 12%
    17:00 +29°C° 0 mm 2 mps 683 mmHg 13%
    18:00 +28°C° 0 mm 1 mps 683 mmHg 13%
    19:00 +27°C° 0 mm 1 mps 683 mmHg 14%
    20:00 +26°C° 0 mm 1 mps 684 mmHg 16%
    21:00 +25°C° 0 mm 1 mps 684 mmHg 17%
    22:00 +22°C° 0 mm 0 mps 684 mmHg 19%
    23:00 +22°C° 0 mm 0 mps 684 mmHg 20%

    26 February, Tuesday

    Time Temperature Precipitation Wind Pressure Humidity
    00:00 +22°C° 0 mm 0 mps 684 mmHg 20%
    01:00 +21°C° 0 mm 0 mps 684 mmHg 21%
    02:00 +21°C° 0 mm 0 mps 684 mmHg 21%
    03:00 +22°C° 0 mm 1 mps 683 mmHg 20%
    04:00 +22°C° 0 mm 1 mps 683 mmHg 20%
    05:00 +22°C° 0 mm 1 mps 684 mmHg 19%
    06:00 +22°C° 0 mm 1 mps 684 mmHg 18%
    07:00 +22°C° 0 mm 1 mps 685 mmHg 17%
    08:00 +22°C° 0 mm 1 mps 686 mmHg 16%
    09:00 +23°C° 0 mm 1 mps 686 mmHg 15%
    10:00 +24°C° 0 mm 2 mps 687 mmHg 14%
    11:00 +24°C° 0 mm 2 mps 687 mmHg 15%
    12:00 +23°C° 0 mm 2 mps 686 mmHg 17%
    13:00 +23°C° 0 mm 1 mps 685 mmHg 18%
    14:00 +23°C° 0 mm 1 mps 685 mmHg 18%
    15:00 +23°C° 0 mm 1 mps 685 mmHg 18%
    16:00 +24°C° 0 mm 1 mps 684 mmHg 18%
    17:00 +23°C° 0.1 mm 1 mps 685 mmHg 21%
    18:00 +22°C° 0.1 mm 1 mps 685 mmHg 23%
    19:00 +21°C° 0.1 mm 1 mps 685 mmHg 25%
    20:00 +21°C° 0.2 mm 1 mps 685 mmHg 30%
    21:00 +19°C° 0.2 mm 0 mps 686 mmHg 35%
    22:00 +18°C° 0.2 mm 0 mps 686 mmHg 39%
    23:00 +18°C° 0 mm 0 mps 686 mmHg 40%

    27 February, Wednesday

    Time Temperature Precipitation Wind Pressure Humidity
    00:00 +18°C° 0 mm 0 mps 685 mmHg 41%
    01:00 +19°C° 0 mm 1 mps 685 mmHg 42%
    02:00 +19°C° 0 mm 1 mps 684 mmHg 42%
    03:00 +17°C° 0 mm 0 mps 684 mmHg 42%
    04:00 +17°C° 0 mm 0 mps 684 mmHg 42%
    05:00 +19°C° 0 mm 1 mps 684 mmHg 41%
    06:00 +20°C° 0 mm 1 mps 685 mmHg 40%
    07:00 +20°C° 0 mm 1 mps 685 mmHg 40%
    08:00 +21°C° 0 mm 1 mps 686 mmHg 37%
    09:00 +21°C° 0 mm 1 mps 686 mmHg 34%
    10:00 +21°C° 0 mm 2 mps 686 mmHg 30%
    11:00 +24°C° 0 mm 2 mps 686 mmHg 30%
    12:00 +27°C° 0 mm 2 mps 686 mmHg 29%
    13:00 +29°C° 0 mm 2 mps 686 mmHg 29%
    14:00 +29°C° 0 mm 3 mps 685 mmHg 28%
    15:00 +30°C° 0 mm 3 mps 685 mmHg 27%
    16:00 +30°C° 0 mm 3 mps 684 mmHg 26%
    17:00 +29°C° 0 mm 3 mps 684 mmHg 26%
    18:00 +27°C° 0 mm 2 mps 684 mmHg 26%
    19:00 +26°C° 0 mm 2 mps 684 mmHg 25%
    20:00 +25°C° 0 mm 2 mps 685 mmHg 24%
    21:00 +24°C° 0 mm 1 mps 685 mmHg 23%
    22:00 +23°C° 0 mm 1 mps 685 mmHg 22%
    23:00 +22°C° 0 mm 1 mps 685 mmHg 20%
    Show more